Time,TemperatureF,DewpointF,PressureIn,WindDirection,WindDirectionDegrees,WindSpeedMPH,WindSpeedGustMPH,Humidity,HourlyPrecipIn,Conditions,Clouds,dailyrainin,SoftwareType,DateUTC
2013-07-05 00:01:00,74.0,71.0,30.02,WSW,255,0.0,0.0,89,0.00,,,-99.99,,2013-07-05 04:01:00,
2013-07-05 00:12:00,74.0,71.0,30.02,WSW,255,0.0,0.0,89,0.00,,,-99.99,,2013-07-05 04:12:00,
2013-07-05 00:22:00,74.0,71.0,30.01,WSW,255,0.0,0.0,89,0.00,,,-99.99,,2013-07-05 04:22:00,
2013-07-05 00:33:00,74.0,71.0,30.01,WSW,255,0.0,0.0,90,0.00,,,-99.99,,2013-07-05 04:33:00,
2013-07-05 00:43:00,73.0,70.0,30.01,WNW,301,0.0,0.0,91,0.00,,,-99.99,,2013-07-05 04:43:00,
2013-07-05 00:53:00,72.0,69.0,30.00,WNW,301,0.0,0.0,91,0.00,,,-99.99,,2013-07-05 04:53:00,
2013-07-05 01:01:00,72.0,69.0,30.01,WNW,301,0.0,1.0,91,0.00,,,-99.99,,2013-07-05 05:01:00,
2013-07-05 01:12:00,72.0,69.0,30.01,WNW,301,0.0,1.0,91,0.00,,,-99.99,,2013-07-05 05:12:00,
2013-07-05 01:22:00,71.0,69.0,30.00,WNW,301,0.0,0.0,92,0.00,,,-99.99,,2013-07-05 05:22:00,
2013-07-05 01:33:00,70.0,68.0,30.00,WNW,299,0.0,0.0,93,0.00,,,-99.99,,2013-07-05 05:33:00,
2013-07-05 01:43:00,70.0,68.0,30.01,WNW,299,0.0,0.0,93,0.00,,,-99.99,,2013-07-05 05:43:00,
2013-07-05 01:52:00,70.0,68.0,30.01,WNW,299,0.0,0.0,94,0.00,,,-99.99,,2013-07-05 05:52:00,
2013-07-05 02:02:00,70.0,68.0,30.01,WNW,299,0.0,0.0,94,0.00,,,-99.99,,2013-07-05 06:02:00,
2013-07-05 02:13:00,69.0,68.0,30.01,WNW,299,0.0,0.0,95,0.00,,,-99.99,,2013-07-05 06:13:00,
2013-07-05 02:23:00,69.0,68.0,30.00,WNW,299,0.0,0.0,95,0.00,,,-99.99,,2013-07-05 06:23:00,
2013-07-05 02:34:00,68.0,67.0,30.00,WNW,299,0.0,0.0,95,0.00,,,-99.99,,2013-07-05 06:34:00,
2013-07-05 02:44:00,68.0,67.0,30.00,WNW,299,0.0,0.0,95,0.00,,,-99.99,,2013-07-05 06:44:00,
2013-07-05 02:53:00,68.0,67.0,30.00,WNW,299,0.0,0.0,96,0.00,,,-99.99,,2013-07-05 06:53:00,
2013-07-05 03:02:00,68.0,67.0,30.01,WNW,299,0.0,0.0,96,0.00,,,-99.99,,2013-07-05 07:02:00,
2013-07-05 03:12:00,68.0,67.0,30.01,WNW,299,0.0,0.0,96,0.00,,,-99.99,,2013-07-05 07:12:00,
2013-07-05 03:23:00,68.0,67.0,30.01,WNW,299,0.0,0.0,96,0.00,,,-99.99,,2013-07-05 07:23:00,
2013-07-05 03:34:00,67.0,66.0,30.01,WNW,299,0.0,0.0,96,0.00,,,-99.99,,2013-07-05 07:34:00,
2013-07-05 03:43:00,67.0,66.0,30.01,WNW,299,0.0,0.0,96,0.00,,,-99.99,,2013-07-05 07:43:00,
2013-07-05 03:53:00,67.0,66.0,30.01,WNW,299,0.0,0.0,96,0.00,,,-99.99,,2013-07-05 07:53:00,
2013-07-05 04:03:00,67.0,66.0,30.01,WNW,299,0.0,0.0,97,0.00,,,-99.99,,2013-07-05 08:03:00,
2013-07-05 04:12:00,67.0,66.0,30.01,WNW,299,0.0,0.0,97,0.00,,,-99.99,,2013-07-05 08:12:00,
2013-07-05 04:23:00,67.0,66.0,30.01,WNW,299,0.0,0.0,97,0.00,,,-99.99,,2013-07-05 08:23:00,
2013-07-05 04:33:00,67.0,66.0,30.01,WNW,299,0.0,0.0,97,0.00,,,-99.99,,2013-07-05 08:33:00,
2013-07-05 04:44:00,67.0,66.0,30.01,WNW,299,0.0,0.0,97,0.00,,,-99.99,,2013-07-05 08:44:00,
2013-07-05 04:55:00,67.0,66.0,30.01,WNW,299,0.0,0.0,97,0.00,,,-99.99,,2013-07-05 08:55:00,
2013-07-05 05:08:00,67.0,66.0,30.01,WNW,299,0.0,0.0,97,0.00,,,-99.99,,2013-07-05 09:08:00,
2013-07-05 05:16:00,67.0,66.0,30.01,WNW,299,0.0,0.0,97,0.00,,,-99.99,,2013-07-05 09:16:00,
2013-07-05 05:37:00,69.0,68.0,30.02,West,277,0.0,0.0,98,0.00,,,-99.99,,2013-07-05 09:37:00,
2013-07-05 05:48:00,69.0,68.0,30.02,West,281,0.0,0.0,98,0.00,,,-99.99,,2013-07-05 09:48:00,
2013-07-05 05:55:00,71.0,70.0,30.02,West,261,2.0,5.0,96,0.00,,,-99.99,,2013-07-05 09:55:00,
2013-07-05 06:08:00,72.0,70.0,30.02,West,264,0.0,5.0,93,0.00,,,-99.99,,2013-07-05 10:08:00,
2013-07-05 06:19:00,73.0,70.0,30.02,WNW,287,0.0,5.0,90,0.00,,,-99.99,,2013-07-05 10:19:00,
2013-07-05 06:26:00,74.0,70.0,30.02,WNW,286,0.0,2.0,88,0.00,,,-99.99,,2013-07-05 10:26:00,
2013-07-05 06:38:00,75.0,71.0,30.02,West,266,0.0,6.0,86,0.00,,,-99.99,,2013-07-05 10:38:00,
2013-07-05 08:37:00,81.0,71.0,30.03,West,272,4.0,11.0,72,0.00,,,-99.99,,2013-07-05 12:37:00,
2013-07-05 08:49:00,81.0,72.0,30.03,WNW,297,4.0,11.0,73,0.00,,,-99.99,,2013-07-05 12:49:00,
2013-07-05 09:25:00,82.0,71.0,30.03,NW,309,3.0,10.0,70,0.00,,,-99.99,,2013-07-05 13:25:00,
2013-07-05 09:39:00,83.0,71.0,30.03,WNW,295,6.0,14.0,68,0.00,,,-99.99,,2013-07-05 13:39:00,
2013-07-05 09:49:00,83.0,70.0,30.03,WNW,301,12.0,14.0,66,0.00,,,-99.99,,2013-07-05 13:49:00,
2013-07-05 09:56:00,84.0,72.0,30.03,WNW,288,4.0,13.0,68,0.00,,,-99.99,,2013-07-05 13:56:00,
2013-07-05 10:38:00,85.0,71.0,30.02,NW,315,5.0,13.0,64,0.00,,,-99.99,,2013-07-05 14:38:00,
2013-07-05 13:43:00,91.0,69.0,29.99,WNW,299,5.0,18.0,48,0.00,,,-99.99,,2013-07-05 17:43:00,
2013-07-05 13:53:00,90.0,69.0,30.00,WNW,282,4.0,14.0,50,0.00,,,-99.99,,2013-07-05 17:53:00,
2013-07-05 14:02:00,90.0,69.0,29.99,West,274,2.0,14.0,50,0.00,,,-99.99,,2013-07-05 18:02:00,
2013-07-05 14:11:00,91.0,70.0,30.00,West,276,5.0,12.0,50,0.00,,,-99.99,,2013-07-05 18:11:00,
2013-07-05 14:22:00,91.0,70.0,29.99,WSW,251,2.0,10.0,50,0.00,,,-99.99,,2013-07-05 18:22:00,
2013-07-05 19:11:00,85.0,70.0,29.96,WSW,256,1.0,8.0,62,0.00,,,-99.99,,2013-07-05 23:11:00,
2013-07-05 19:43:00,82.0,71.0,29.96,West,269,0.0,2.0,70,0.00,,,-99.99,,2013-07-05 23:43:00,
2013-07-05 19:53:00,81.0,71.0,29.96,WSW,255,0.0,4.0,72,0.00,,,-99.99,,2013-07-05 23:53:00,
2013-07-05 20:02:00,81.0,72.0,29.96,SW,220,1.0,4.0,73,0.00,,,-99.99,,2013-07-06 00:02:00,
2013-07-05 20:12:00,80.0,71.0,29.96,South,190,0.0,4.0,74,0.00,,,-99.99,,2013-07-06 00:12:00,
2013-07-05 20:22:00,79.0,70.0,29.96,South,190,0.0,2.0,75,0.00,,,-99.99,,2013-07-06 00:22:00,
2013-07-05 20:33:00,79.0,71.0,29.97,SSW,201,0.0,2.0,77,0.00,,,-99.99,,2013-07-06 00:33:00,
2013-07-05 20:42:00,79.0,72.0,29.97,West,270,0.0,8.0,79,0.00,,,-99.99,,2013-07-06 00:42:00,
2013-07-05 20:53:00,78.0,72.0,29.96,SSW,212,0.0,8.0,81,0.00,,,-99.99,,2013-07-06 00:53:00,
2013-07-05 21:02:00,78.0,72.0,29.96,WNW,288,0.0,5.0,82,0.00,,,-99.99,,2013-07-06 01:02:00,
2013-07-05 21:43:00,77.0,72.0,29.96,WSW,247,0.0,0.0,84,0.00,,,-99.99,,2013-07-06 01:43:00,
2013-07-05 21:53:00,77.0,72.0,29.96,West,269,0.0,0.0,85,0.00,,,-99.99,,2013-07-06 01:53:00,
2013-07-05 22:02:00,76.0,71.0,29.95,WSW,244,0.0,0.0,85,0.00,,,-99.99,,2013-07-06 02:02:00,
2013-07-05 22:22:00,76.0,72.0,29.95,SW,229,0.0,0.0,86,0.00,,,-99.99,,2013-07-06 02:22:00,
2013-07-05 22:43:00,76.0,72.0,29.95,WSW,251,0.0,0.0,87,0.00,,,-99.99,,2013-07-06 02:43:00,
2013-07-05 22:53:00,76.0,72.0,29.95,West,259,0.0,0.0,88,0.00,,,-99.99,,2013-07-06 02:53:00,
2013-07-05 23:02:00,75.0,71.0,29.95,West,259,0.0,0.0,88,0.00,,,-99.99,,2013-07-06 03:02:00,
2013-07-05 23:22:00,75.0,71.0,29.95,West,259,0.0,0.0,88,0.00,,,-99.99,,2013-07-06 03:22:00,
2013-07-05 23:34:00,75.0,72.0,29.95,West,263,0.0,0.0,89,0.00,,,-99.99,,2013-07-06 03:34:00,
2013-07-05 23:43:00,75.0,72.0,29.96,West,263,0.0,0.0,89,0.00,,,-99.99,,2013-07-06 03:43:00,
2013-07-05 23:53:00,75.0,72.0,29.96,West,263,0.0,0.0,89,0.00,,,-99.99,,2013-07-06 03:53:00,